Weather Service Report


684 
ASUS45 KBOI 271110
RWRID 

IDAHO REGIONAL WEATHER ROUNDUP
NATIONAL WEATHER SERVICE BOISE ID
500 AM MDT TUE JUN 27 2017

NOTE: "FAIR" INDICATES FEW OR NO CLOUDS BELOW 12000 FEET
WITH NO SIGNIFICANT WEATHER AND/OR OBSTRUCTIONS TO VISIBILITY

IDZ012-014-271200-
SOUTHWEST IDAHO

  
CITY           SKY/WX    TMP DP  RH WIND       PRES   REMARKS
BOISE          PTCLDY    63  50  62 S5        29.87F                  
CALDWELL       PTCLDY    61  52  72 W8        29.89R                  
MOUNTAIN HOME  CLEAR     62  50  64 NW10      29.88R                  
$$

IDZ016-017-271200-
SOUTHCENTRAL IDAHO

  
CITY           SKY/WX    TMP DP  RH WIND       PRES   REMARKS
BURLEY         PTCLDY    62  51  67 W8        29.90S                  
JEROME         CLEAR     59  51  75 S5        29.93R                  
TWIN FALLS     CLEAR     60  50  69 SW13      29.94R                  
$$

IDZ019>023-271200-
SOUTHEAST IDAHO

  
CITY           SKY/WX    TMP DP  RH WIND       PRES   REMARKS
IDAHO FALLS    CLOUDY    68  49  50 SE6       29.90F                  
POCATELLO      PTCLDY    66  50  56 SE12      29.87F                  
REXBURG        CLOUDY    62  50  64 E7G17     29.91F                  
$$

IDZ006-010-011-018-031-032-271200-
CENTRAL IDAHO MOUNTAINS

  
CITY           SKY/WX    TMP DP  RH WIND       PRES   REMARKS
MCCALL         PTCLDY    53  48  83 NE7       29.99R                  
HAILEY         PTCLDY    55  45  67 NW8       29.99F                  
STANLEY          N/A     49  46  90 SE5       30.12F                  
SALMON         CLOUDY   N/A N/A N/A S10G16    29.99R                  
CHALLIS        LGT RAIN  55  48  77 NE13      30.02F                  
$$

IDZ002-004-006-007-026-271200-
NORTHERN IDAHO

  
CITY           SKY/WX    TMP DP  RH WIND       PRES   REMARKS
LEWISTON       CLOUDY    67  55  65 S5        29.82S                  
LOWELL           N/A     62  57  83 CALM      29.87R                  
COEUR D'ALENE  PTCLDY    64  54  69 W3        29.84R                  
MULLAN PASS    CLOUDY    52  45  77 SW7       29.96S                  
$$
  

Return to Home page


Western Regional Climate Center, wrcc@dri.edu